Location: Shannon
(40.5500°S, 175.4167°E)
Time: 10:49:58
(UTC+00:00)

BREEZE-M DEB (TANK) - Pass Details

Date: 17 November 2025
Orbit: 350 x 16136 km, 49.4° (Epoch: 09 December)

Event Time Altitude Azimuth Distance (km) Brightness Sun altitude
Rises 15:40:58 0° 239° (WSW) 9,534 8.4 -11.8°
Reaches altitude 10° 15:50:12 10° 239° (WSW) 6,178 7.4 -10.4°
Maximum altitude 16:03:08 77° 321° (NW) 999 3.5 -8.4°
Drops below altitude 10° 16:06:49 10° 47° (NE) 1,872 5.2 -7.8°
Sets 16:08:10 0° 49° (NE) 2,506 5.9 -7.6°
